Tracking 29747 objects as of 10-Oct-2024
HD Live streaming from Space Station
objects crossing your sky now

STARLINK-2540

Track STARLINK-2540 now!
10-day predictions
STARLINK-2540 is classified as:


NORAD ID: 48290
Int'l Code: 2021-036Q
Perigee: 553.5 km
Apogee: 555.3 km
Inclination: 53.1 °
Period: 95.6 minutes
Semi major axis: 6925 km
RCS: Unknown
Launch date: April 29, 2021
Source: United States (US)
Launch site: AIR FORCE EASTERN TEST RANGE (AFETR)
Your satellite tracking list
Your tracking list is empty




NASA's NSSDC Master Catalog

Two Line Element Set (TLE):
1 48290U 21036Q   24283.59285145  .00019871  00000-0  13498-2 0  9996
2 48290  53.0528 238.4669 0001263  97.9365 262.1767 15.06381366191109
Source of the keplerian elements: AFSPC